Wind_Speed
19 17 16 14 13 12 12 11 12 12 13 14 15 15 16 16 16 16 16 16 17 16 16 15 15 15 14 14 14 13 13 13 13 13 14 14 14 14 15 15 16 17 18 18 18 18 19 19 20 20 20 20 20 20 20 20 20 20 20 20 21 20 20 17 11 13 21 20 17 19 19 19 20 19 19 19 17 17 18 18 18 19 21 23 24
12 11 10 9 8 8 9 10 11 12 13 13 13 13 13 14 14 15 15 15 15 15 15 14 13 13 13 12 12 12 12 12 12 13 13 14 14 14 14 15 16 17 17 18 19 18 18 19 20 20 19 19 19 19 19 19 19 20 20 19 20 19 18 19 16 12 16 19 17 18 19 18 19 18 18 19 19 19 21 22 23 24 24 24 24
7 7 6 6 7 7 8 10 11 12 12 12 12 12 12 13 14 14 15 14 14 13 13 13 12 12 11 11 11 12 13 13 13 13 13 14 14 14 15 15 15 16 17 17 18 18 18 19 19 20 19 18 19 18 18 19 18 19 19 18 19 20 19 20 19 15 17 21 18 16 18 18 18 18 18 20 22 22 23 24 24 23 21 20 20
7 7 7 7 8 8 10 11 11 12 12 12 12 12 12 13 13 13 13 13 12 11 11 11 11 11 11 11 12 13 13 13 12 12 12 13 13 13 13 13 14 15 16 16 17 17 18 19 19 20 19 18 19 19 18 18 18 17 19 18 18 21 21 20 21 20 20 21 19 17 17 18 20 20 20 21 23 22 23 22 21 20 17 15 16
10 9 9 9 9 10 11 11 11 12 11 12 12 12 12 12 12 12 12 12 12 11 11 10 10 11 11 11 13 13 13 13 13 13 12 12 12 13 14 14 15 15 16 17 18 19 19 20 21 21 20 20 19 20 19 18 18 17 17 18 18 19 20 19 21 22 21 22 21 19 17 18 21 20 18 20 22 21 21 20 19 17 15 13 13
12 11 11 11 11 11 11 11 12 12 12 12 12 12 12 11 12 12 12 12 11 10 10 10 10 11 11 11 13 13 14 15 15 14 14 14 15 16 17 17 17 17 17 18 17 18 19 20 22 22 21 21 21 21 21 20 19 18 18 18 18 18 19 19 19 20 21 23 22 19 17 17 19 20 18 17 19 20 20 20 17 14 11 11 11
13 13 12 12 11 11 12 12 12 11 11 11 11 11 11 11 11 11 11 11 10 10 10 10 10 10 11 11 12 13 15 15 15 14 16 17 18 18 18 18 18 17 17 17 17 18 19 19 21 21 21 22 22 22 22 21 20 19 18 18 19 18 18 18 18 18 19 20 19 18 17 16 16 18 18 17 18 19 17 14 11 9 7 7 9
14 13 13 12 12 12 12 12 11 11 11 11 11 11 11 11 11 11 11 10 9 10 11 11 11 11 12 12 13 14 15 15 15 16 18 20 20 18 17 15 15 16 16 16 16 17 18 18 19 20 21 21 23 23 23 23 22 20 19 19 19 19 19 18 17 17 17 17 17 16 16 15 14 15 16 15 13 12 9 6 6 7 8 10 13
14 14 13 13 13 12 12 12 11 11 11 11 11 11 12 12 11 11 11 10 10 11 12 12 13 13 13 13 13 15 16 16 16 17 19 20 18 14 12 13 16 18 18 17 16 16 17 18 18 19 19 19 21 21 22 23 22 21 20 18 18 19 19 18 17 16 15 15 15 14 13 12 12 12 12 11 7 7 8 9 8 7 10 13 15
15 15 14 14 14 13 12 13 13 12 12 12 12 13 13 13 13 12 12 13 13 14 14 14 14 15 16 15 15 15 15 15 16 17 18 18 14 11 14 17 19 19 18 18 18 18 17 18 18 18 18 18 19 20 20 20 20 20 19 16 16 18 19 18 17 15 15 14 13 13 10 9 11 12 11 11 10 10 11 11 9 9 10 12 12
15 15 15 14 14 14 14 14 14 14 14 14 14 14 14 14 14 14 14 16 16 15 15 15 15 16 16 15 14 14 14 15 16 17 19 17 14 16 20 21 19 18 18 19 19 18 18 18 19 19 18 19 20 20 19 18 18 18 17 14 13 16 17 17 17 16 15 15 14 13 10 10 13 13 12 12 12 11 11 9 9 9 8 7 6
14 14 14 14 14 15 15 15 15 16 16 15 15 15 15 14 15 16 16 17 17 16 16 17 16 15 15 14 14 15 15 16 16 17 19 17 17 20 22 20 18 18 19 19 19 19 20 20 20 20 20 20 19 20 21 20 18 18 18 17 16 14 14 15 16 17 16 15 15 14 13 14 14 14 13 12 11 10 11 10 10 8 6 5 5
14 15 15 16 16 17 17 17 17 18 17 17 17 17 16 16 16 17 17 16 16 16 16 16 16 16 16 16 16 16 16 16 17 18 19 17 18 21 22 21 19 17 17 19 20 20 21 21 22 21 20 20 20 20 21 22 21 19 19 19 19 15 13 14 16 17 18 17 16 16 16 16 16 17 16 13 12 13 13 12 12 9 7 7 8
15 16 17 17 18 18 19 19 19 19 19 18 18 17 17 17 16 17 16 15 16 17 16 16 17 17 17 16 15 16 17 18 18 19 19 18 19 21 22 23 21 18 18 20 20 21 21 22 22 22 22 21 21 20 21 22 23 21 20 20 17 15 16 18 18 19 19 18 17 17 17 17 17 19 19 16 15 16 16 15 13 10 9 10 11
17 18 18 19 20 20 20 20 19 19 19 18 18 17 17 17 17 17 16 15 16 17 16 17 18 18 18 17 14 15 18 19 20 20 18 18 19 21 23 25 22 19 20 21 21 21 21 22 22 22 22 23 21 20 21 22 23 23 21 21 20 19 19 20 20 19 18 17 16 17 17 17 17 20 21 20 19 18 17 17 14 12 11 11 12
19 20 20 20 20 19 19 19 18 18 18 18 18 18 18 18 18 18 16 16 17 17 16 17 18 17 18 17 14 14 18 19 19 19 18 18 20 23 25 24 21 20 22 22 22 22 22 22 22 22 23 23 21 21 22 23 24 24 23 23 23 22 21 19 17 16 14 14 15 16 15 15 14 15 15 14 13 13 13 14 14 12 9 8 9
20 20 20 19 18 17 17 17 17 17 18 19 19 19 18 18 18 18 18 17 18 17 16 17 17 16 17 18 17 17 18 18 18 19 18 19 22 25 24 23 21 21 23 23 22 23 22 21 21 21 23 23 23 23 23 23 23 23 23 25 25 23 20 16 13 11 10 10 12 12 12 10 8 7 8 7 5 6 6 8 10 8 6 4 5
19 18 17 17 16 16 15 16 17 18 18 19 19 19 19 18 17 17 18 17 17 16 16 16 17 16 16 17 19 19 17 15 17 18 19 20 22 23 22 22 22 22 24 24 24 24 24 22 20 21 22 23 24 24 23 21 21 22 24 25 23 19 16 14 11 9 8 8 8 7 6 7 7 7 9 9 8 8 5 4 5 5 5 5 4
16 15 15 15 15 15 16 17 17 18 18 19 18 18 18 17 16 17 17 16 16 16 15 15 15 16 17 18 19 19 17 15 15 18 20 20 21 22 21 22 23 23 24 25 25 25 25 25 23 23 23 23 24 24 22 20 20 22 24 20 15 14 14 13 11 10 10 10 9 8 7 7 8 8 9 9 9 9 7 5 4 4 6 7 6
14 13 14 15 15 16 17 18 17 17 17 17 16 16 17 16 15 15 15 16 16 15 15 15 14 15 18 20 20 19 18 16 15 17 19 20 21 21 22 22 22 23 24 24 24 25 26 27 27 27 25 25 25 24 21 19 18 20 20 14 11 13 14 12 10 9 10 11 10 9 8 9 9 9 10 10 10 10 9 7 6 5 5 7 6
13 14 15 15 16 16 17 17 17 15 16 16 15 15 16 14 14 14 15 16 17 15 15 15 15 16 19 21 21 21 19 18 17 17 18 21 21 21 21 21 21 22 23 23 23 24 26 27 28 27 26 26 25 22 20 17 15 15 15 12 11 12 12 12 11 9 8 9 9 9 9 9 10 11 11 11 10 10 10 9 8 7 5 5 6
15 16 16 15 16 16 15 16 16 14 14 14 14 14 15 13 13 15 16 17 18 17 17 17 17 18 21 22 22 22 21 20 20 20 19 21 21 20 20 20 20 20 21 22 23 24 25 26 26 25 25 24 22 20 21 20 17 14 12 10 11 12 12 13 13 11 10 10 10 10 11 12 12 13 13 12 11 10 9 9 8 7 6 6 6
15 16 16 15 15 14 14 14 15 13 13 14 13 13 14 13 13 15 17 18 19 19 19 19 19 20 23 24 23 23 23 23 23 22 21 22 22 20 20 20 20 19 19 21 22 23 24 24 23 22 22 21 19 19 20 21 21 19 15 13 14 14 14 14 14 13 13 13 13 14 15 14 14 14 14 13 12 11 10 9 7 6 6 6 6
14 15 15 15 15 14 13 14 14 13 13 14 13 13 14 14 14 15 16 17 19 20 19 20 20 21 23 25 25 25 25 25 25 25 24 24 23 21 21 21 20 19 20 21 21 21 21 21 20 19 20 19 18 17 19 21 21 20 17 16 15 15 15 15 14 13 13 14 15 15 15 14 14 13 12 12 11 11 10 9 8 7 6 6 7
13 14 14 14 14 13 13 14 15 14 14 14 13 14 15 15 15 16 15 15 17 19 19 20 20 20 22 24 25 26 26 27 27 27 26 26 24 23 23 22 21 21 21 20 18 18 18 17 17 18 19 19 18 17 19 21 21 20 19 18 17 17 17 16 15 14 13 14 14 14 14 14 13 12 11 10 10 11 11 10 9 8 8 8 9
12 13 13 13 13 13 14 15 16 16 15 14 13 13 14 15 16 16 15 15 17 19 20 20 20 19 20 22 24 25 27 27 28 28 27 26 25 25 24 23 22 23 21 18 17 18 16 15 17 19 19 20 21 20 20 20 20 20 21 21 21 21 20 19 17 16 15 14 13 13 14 13 13 12 12 11 12 14 14 12 11 10 10 11 12
12 13 14 14 14 14 15 17 17 18 18 16 14 13 13 13 15 17 17 17 18 20 20 20 19 18 19 22 24 25 26 27 28 27 26 24 24 24 24 23 23 23 21 20 19 18 15 15 17 19 19 20 21 22 22 22 22 22 22 22 22 22 21 19 17 16 15 15 13 12 13 13 14 15 15 15 16 17 16 14 13 12 12 13 13
12 12 13 14 15 16 16 17 18 19 19 18 17 17 16 14 13 16 18 17 17 19 19 19 19 18 18 21 23 23 25 26 27 25 23 22 23 23 22 22 21 21 20 20 19 16 15 16 19 20 22 23 23 24 25 24 24 24 23 23 22 22 21 20 18 16 15 15 13 13 14 15 16 17 18 19 20 19 17 15 14 13 13 13 13
11 11 13 14 16 18 18 17 17 18 20 19 17 16 17 15 13 15 16 14 13 15 16 17 17 17 17 18 19 20 23 25 24 21 20 20 20 20 19 19 18 18 18 17 16 16 17 20 22 23 23 23 23 24 25 25 25 25 24 24 24 23 23 22 22 19 17 14 13 13 15 16 17 18 19 20 22 21 18 16 15 15 15 15 14
12 12 13 15 18 19 19 18 17 17 19 20 19 16 16 14 13 14 15 12 10 12 14 15 15 15 15 15 15 17 20 20 18 18 18 18 18 18 17 16 16 17 16 15 17 20 22 22 22 22 22 22 21 22 23 23 24 24 24 24 24 24 24 23 23 20 17 15 15 15 16 17 17 19 20 20 21 22 19 17 16 16 17 17 16
13 14 15 16 18 20 19 18 18 18 18 20 21 21 20 17 15 16 15 12 10 11 14 15 13 12 13 14 15 19 21 18 16 17 18 18 18 18 16 15 15 17 17 17 19 22 22 21 21 21 21 20 20 20 21 22 22 23 23 23 24 24 24 23 22 19 17 15 16 17 17 17 18 19 20 20 21 21 20 18 18 19 18 17 15
13 14 15 16 17 19 18 18 18 19 19 19 21 23 24 24 21 19 18 15 12 12 15 17 14 12 13 14 16 20 22 19 17 17 18 18 19 17 14 15 16 17 19 21 22 22 21 20 20 20 20 20 20 20 20 21 21 22 22 22 23 23 23 22 20 19 18 17 17 17 18 18 19 19 20 20 21 21 20 20 20 20 19 17 16
13 14 14 16 17 17 18 18 19 20 20 20 20 21 23 24 24 23 22 20 16 15 16 17 16 14 15 16 17 20 21 19 17 18 18 18 19 17 15 16 17 19 22 23 22 21 21 20 19 20 20 19 20 20 20 20 21 21 21 21 21 21 21 20 19 19 19 19 18 18 19 19 19 20 21 22 21 19 19 19 19 19 18 18 17
13 13 14 15 16 16 17 18 19 19 18 18 19 20 21 21 20 22 23 24 22 20 19 18 17 16 17 18 19 20 20 19 18 18 18 19 19 18 17 18 20 22 24 24 22 20 20 20 20 20 20 19 19 20 20 21 21 21 21 21 21 20 19 19 20 20 19 19 18 19 19 20 20 21 22 22 20 19 18 18 19 19 18 17 18
14 15 15 16 16 16 16 17 17 17 18 18 18 18 19 18 18 18 20 21 22 21 21 20 19 18 19 20 20 21 20 19 19 19 19 20 20 20 20 23 24 24 24 23 21 20 20 19 19 19 20 20 20 20 20 20 20 20 20 21 21 20 19 20 19 19 19 19 19 20 20 20 21 21 20 19 19 18 18 19 19 19 18 18 18
15 16 17 17 17 16 16 16 16 16 17 17 17 17 17 17 17 17 17 17 18 19 21 22 21 20 19 20 20 21 20 19 20 20 19 20 21 22 24 25 24 23 24 23 21 20 20 20 19 19 20 19 20 20 20 20 20 19 19 20 20 19 19 19 19 19 19 19 19 20 20 19 20 19 19 19 18 18 18 19 19 19 19 18 18
16 17 18 18 17 17 16 16 16 16 16 16 16 16 17 17 16 17 17 17 18 19 20 22 23 23 22 22 22 22 21 20 20 20 20 20 22 23 24 24 23 22 23 23 21 20 20 20 19 19 20 19 19 20 20 19 18 18 18 19 19 18 17 18 19 19 19 19 19 19 19 18 18 18 18 18 19 19 19 20 20 20 20 19 18
16 17 19 18 17 17 17 18 17 17 17 17 17 17 17 17 17 17 17 17 18 19 20 21 23 24 24 23 23 23 22 21 22 23 23 23 23 23 24 24 23 22 22 22 21 20 20 19 19 19 19 19 19 19 19 19 18 18 18 19 19 18 18 19 20 20 20 20 20 19 19 18 18 17 18 18 19 20 20 21 21 21 21 21 19
17 18 19 19 17 17 17 18 19 19 19 19 18 18 18 18 17 18 17 17 18 19 19 20 21 21 21 22 22 23 24 24 25 25 25 24 23 23 23 23 23 23 22 22 21 19 19 19 18 18 18 18 18 18 18 18 17 17 18 19 19 19 19 21 22 22 21 21 20 19 19 19 19 19 19 19 19 20 21 21 21 20 20 20 20
17 19 22 21 18 17 17 18 19 20 20 19 18 18 18 18 18 17 18 18 18 18 19 19 20 20 20 20 21 22 23 23 24 24 24 24 23 22 22 23 23 23 22 21 20 19 18 17 17 17 17 17 17 17 17 17 16 16 17 18 18 19 20 21 22 22 22 21 21 20 20 20 20 20 20 20 19 20 21 21 21 20 19 19 20
17 20 23 24 20 17 17 17 18 19 19 18 17 17 17 17 17 17 17 17 18 18 18 18 18 19 18 18 18 19 20 21 22 22 23 22 22 21 21 22 22 22 21 20 19 18 17 17 17 17 17 17 17 16 16 16 16 16 17 18 18 19 20 22 22 22 22 21 21 21 21 21 21 21 21 21 21 21 21 21 21 21 20 20 20
17 19 24 26 22 17 16 17 18 18 18 17 16 16 16 16 16 16 17 17 17 18 18 18 19 18 17 17 18 18 18 19 20 22 22 22 21 20 20 20 21 20 19 19 18 17 16 16 16 16 16 16 16 16 16 16 16 16 17 18 18 20 21 22 22 22 22 22 22 22 22 21 21 21 21 21 22 22 22 22 22 21 21 22 21
17 19 24 26 22 16 15 17 17 18 18 17 16 15 15 15 16 16 17 17 17 17 18 19 19 19 18 17 18 18 18 18 20 21 22 21 20 20 19 19 20 19 18 17 16 16 15 15 15 15 14 14 14 14 14 14 14 15 16 17 18 20 21 22 22 23 23 23 23 23 22 22 22 22 22 22 23 23 23 22 22 22 23 23 23
16 20 25 25 19 14 14 16 17 17 17 16 15 15 15 16 16 16 16 16 16 17 17 18 18 18 18 18 18 18 18 19 20 21 21 20 19 19 19 19 19 19 18 17 16 15 14 15 14 14 13 12 12 12 12 12 12 13 14 16 18 20 20 21 21 22 23 23 23 23 23 23 23 23 23 24 24 23 23 23 23 23 23 23 23
17 22 24 21 16 13 14 16 16 16 16 15 15 15 15 16 16 16 16 16 17 17 17 17 18 18 19 19 19 18 19 19 20 20 19 19 18 18 18 19 19 19 18 17 16 15 14 14 14 13 13 13 12 12 11 11 11 12 13 16 17 18 19 19 20 21 21 22 22 23 23 23 23 24 24 24 24 23 23 23 22 23 23 23 23
20 22 19 15 13 13 15 16 15 15 15 16 16 16 16 16 16 15 15 16 17 17 18 18 18 19 19 18 18 18 19 19 19 18 18 18 18 18 18 19 19 18 17 16 15 14 14 13 13 13 13 13 12 12 11 11 11 12 14 15 16 16 17 18 19 20 20 21 21 22 23 23 24 24 24 24 24 23 23 23 23 22 23 23 23
18 16 12 11 12 14 15 15 14 14 15 15 16 16 15 15 15 15 15 16 17 17 18 19 19 19 19 18 18 18 18 18 18 17 17 17 18 18 19 19 18 18 17 15 14 13 13 12 12 13 13 13 13 12 12 12 13 13 14 15 16 16 17 18 19 19 20 20 21 22 23 23 24 25 24 25 25 24 24 24 23 23 23 23 23
12 10 10 12 13 14 14 14 14 14 15 15 15 15 15 15 15 15 16 16 17 17 18 19 20 20 19 18 18 18 18 18 17 16 17 17 18 18 18 18 18 17 16 15 14 13 13 12 12 12 12 13 13 14 13 13 13 13 14 15 16 17 18 18 19 19 20 21 21 22 22 23 24 25 25 25 24 24 24 24 24 24 24 24 24
9 10 11 12 13 13 13 13 12 13 14 14 15 15 15 15 15 15 16 16 17 18 19 20 20 19 19 18 18 18 18 17 17 17 17 17 18 18 18 18 17 17 16 16 15 14 14 13 12 12 13 13 14 14 14 14 14 14 15 15 16 17 18 18 19 20 21 22 22 22 22 23 24 24 24 24 24 23 23 23 23 24 25 25 25
9 10 11 12 12 11 11 11 11 12 12 13 14 16 16 15 15 15 16 16 18 19 20 20 19 19 18 18 18 18 18 17 17 17 18 18 18 18 18 17 17 17 17 16 15 15 14 14 13 13 13 14 14 14 15 15 15 16 16 17 17 18 18 19 20 21 21 22 22 22 22 23 24 24 24 24 23 23 23 23 23 24 24 24 25
10 10 11 10 10 10 10 10 11 11 11 13 14 15 15 15 15 15 16 17 19 20 19 19 18 18 18 18 17 17 17 17 17 17 18 18 18 18 18 18 18 17 17 16 15 15 15 14 14 14 14 15 15 15 16 16 16 16 17 17 18 18 19 20 21 21 21 21 22 22 23 23 24 24 24 24 23 23 23 23 23 23 24 24 23
Wind_Direction
288 285 283 279 274 270 270 272 275 279 284 288 291 291 291 291 291 291 292 292 293 293 294 295 295 295 294 293 292 292 294 296 298 300 299 300 301 303 304 303 300 299 301 301 302 300 297 295 295 295 295 291 289 288 286 282 277 271 267 265 263 261 259 257 263 276 276 275 275 278 281 285 288 289 289 290 288 286 287 284 280 281 283 287 290
299 295 290 284 283 284 285 289 292 295 298 299 299 297 296 296 296 297 299 300 301 302 302 301 301 301 301 301 301 302 304 306 308 310 310 310 311 312 312 309 306 306 306 305 305 304 301 298 299 301 300 296 294 292 290 287 282 277 272 269 267 265 260 260 266 276 280 279 276 279 284 286 287 287 286 287 289 290 290 288 287 286 285 285 286
329 319 311 308 309 308 307 308 310 309 309 308 307 305 304 304 305 307 309 310 311 310 309 310 309 309 310 313 315 315 315 315 316 316 316 316 315 314 313 311 309 309 309 310 310 309 306 302 303 305 304 300 296 295 292 289 285 280 278 274 270 270 266 264 267 273 281 283 280 281 285 286 287 288 288 288 290 292 292 292 292 290 288 284 282
357 345 339 336 330 327 325 324 323 321 320 320 317 316 315 315 316 316 316 316 315 311 312 315 317 319 324 328 329 328 327 327 327 324 322 321 319 318 319 317 315 315 315 315 316 314 309 305 307 310 307 301 299 297 294 290 287 282 280 279 274 273 272 267 266 270 277 283 284 285 287 288 288 290 292 293 294 294 294 293 292 292 291 283 278
1 355 352 347 343 341 339 337 334 333 333 331 329 328 326 324 323 321 319 318 317 316 318 322 327 333 339 339 337 338 342 343 342 340 339 338 336 333 331 327 324 322 321 319 318 316 312 307 308 310 306 300 299 299 296 293 290 285 282 281 277 276 275 270 267 268 270 276 283 286 287 288 290 291 295 297 296 296 296 294 294 295 290 278 274
3 1 359 356 355 352 349 348 345 344 342 338 337 335 332 331 329 328 327 326 326 328 331 335 341 345 345 344 344 348 351 350 348 348 349 349 345 339 334 330 327 324 322 320 321 320 317 314 312 310 306 300 298 297 297 294 291 287 284 284 284 280 277 274 271 269 268 272 280 286 287 287 290 293 295 295 295 294 293 293 295 292 279 272 275
6 5 3 1 1 358 356 354 352 350 347 345 345 343 341 341 340 341 342 342 344 348 351 353 354 354 353 352 354 356 355 354 354 354 353 348 342 337 335 332 329 328 327 327 328 326 323 322 319 316 312 306 301 299 297 294 290 288 286 289 290 286 281 278 275 272 272 274 277 282 286 288 289 292 297 298 294 289 288 292 296 289 283 292 298
7 8 6 6 7 5 3 360 357 356 354 353 353 353 354 355 354 357 359 360 4 7 7 5 3 6 5 1 2 1 360 2 1 356 351 346 342 341 342 343 342 341 340 337 334 331 330 328 327 325 321 316 311 306 301 297 291 288 289 292 293 289 283 281 278 274 272 274 277 281 285 288 289 292 299 300 291 287 297 318 321 306 307 314 316
7 8 8 12 13 10 6 5 4 2 0 1 1 3 5 5 6 10 12 14 18 15 13 12 11 12 8 7 10 5 2 5 3 356 350 346 347 352 355 357 355 350 347 344 341 341 340 337 336 334 331 327 324 318 312 305 295 287 289 294 295 290 284 280 277 274 272 272 275 280 283 284 286 292 297 297 294 303 315 319 318 312 313 317 321
9 11 13 16 15 12 11 11 10 10 10 10 11 12 11 10 12 15 17 20 19 15 13 14 16 14 10 10 10 4 3 6 3 357 351 349 357 10 5 359 357 355 353 351 349 349 348 345 343 341 338 338 337 334 328 319 305 293 288 290 295 294 288 282 276 271 269 269 271 276 278 279 282 286 288 291 299 305 306 309 311 316 322 324 325
11 14 17 18 16 16 17 16 17 17 17 16 17 16 12 13 14 15 20 19 15 15 15 14 16 14 10 11 8 5 8 6 2 357 354 359 12 12 4 0 0 0 358 354 352 350 348 346 344 343 344 343 341 341 340 334 323 309 295 290 299 303 296 288 282 276 269 265 266 267 266 271 278 281 284 288 292 294 298 303 306 314 325 324 319
15 18 19 19 19 21 21 21 22 21 20 19 19 18 15 17 18 17 19 17 12 17 19 17 16 12 11 12 11 13 12 6 4 359 354 6 15 6 3 6 3 360 359 356 352 347 345 345 344 345 347 343 341 346 349 347 339 327 312 298 295 303 307 298 292 289 280 273 270 263 259 264 270 275 280 284 287 289 292 292 291 298 306 294 285
20 22 23 22 24 25 23 24 23 21 21 19 20 20 17 20 21 17 16 15 12 17 20 16 15 14 16 17 14 16 13 7 9 1 356 10 13 0 2 8 1 356 354 350 348 348 348 347 345 346 346 344 345 349 351 350 347 342 333 313 292 291 312 312 303 298 290 283 279 273 267 264 263 268 274 275 279 284 284 282 280 277 275 276 277
25 26 26 24 25 24 23 23 22 20 21 19 19 22 20 20 21 16 14 14 12 16 18 14 14 15 15 13 14 18 16 12 11 2 358 10 8 357 1 3 357 354 351 349 351 353 351 350 347 344 343 346 350 348 346 348 346 344 345 336 313 302 314 316 311 307 299 290 286 286 285 276 266 270 276 274 273 275 274 274 274 269 270 277 279
30 28 26 23 23 21 19 19 19 19 21 20 19 20 20 20 19 13 11 14 14 15 15 13 13 14 13 14 19 22 17 13 9 1 359 7 2 356 359 357 355 356 352 351 355 353 350 350 347 342 342 346 349 345 342 344 343 340 341 339 331 322 320 320 317 314 307 298 293 292 292 286 274 273 279 279 275 276 275 273 272 273 275 279 282
28 26 24 21 20 19 16 16 17 19 19 17 16 17 18 18 17 11 10 15 17 14 12 13 14 14 17 24 25 18 12 11 8 3 4 6 358 354 356 355 356 358 353 352 354 350 349 350 345 342 343 344 344 342 340 339 338 336 333 332 331 327 324 325 326 322 311 297 294 294 295 297 288 281 288 291 285 286 283 270 268 269 267 274 283
24 22 22 20 19 20 17 15 15 17 17 14 13 15 16 15 14 13 14 15 14 11 8 12 18 20 23 26 20 9 7 12 12 7 10 7 356 352 355 357 360 359 352 351 352 348 347 348 345 343 341 339 338 338 335 332 331 329 327 327 325 323 324 330 334 334 327 311 304 302 304 315 321 315 326 343 344 334 303 265 262 257 244 259 279
22 21 22 20 19 18 17 15 14 15 15 13 13 15 16 16 14 16 19 14 8 10 11 12 20 27 24 18 14 7 4 13 16 9 9 7 358 354 358 1 0 356 352 351 350 347 347 348 347 345 340 336 335 333 330 328 325 322 321 320 318 320 331 341 342 344 354 352 348 343 336 346 359 354 353 3 6 3 352 293 273 254 240 256 279
21 21 19 18 18 16 17 16 15 17 14 12 16 18 15 14 16 18 22 15 6 11 17 15 23 29 17 8 12 9 4 11 16 7 4 5 1 358 1 2 358 354 352 350 347 348 351 352 352 350 343 337 334 332 330 326 322 320 319 320 329 343 350 353 351 349 353 356 0 8 12 11 9 2 1 5 5 2 359 340 312 286 271 277 287
19 18 16 17 17 17 19 18 16 18 15 11 16 21 15 13 19 20 19 12 7 12 18 18 26 27 14 8 12 14 9 8 9 5 2 3 2 1 1 1 357 352 350 348 346 348 352 354 355 356 352 346 341 338 333 324 319 320 323 335 360 1 354 357 2 355 346 342 340 343 355 3 3 1 2 5 3 358 354 347 330 312 295 290 296
18 19 18 19 19 19 20 19 15 17 17 12 15 21 22 22 24 20 14 10 11 15 18 20 24 23 16 13 15 17 17 11 7 7 3 0 2 2 0 359 355 350 349 348 347 349 350 350 353 356 356 353 351 350 348 342 333 326 329 349 15 9 2 9 11 2 354 350 345 345 355 1 2 3 3 3 3 360 356 352 343 332 318 307 312
22 22 20 19 20 20 19 16 13 14 15 14 15 20 25 29 27 20 15 14 17 20 20 19 19 17 15 16 17 18 19 16 13 11 6 1 1 1 358 357 354 352 350 348 348 349 349 349 351 353 354 354 355 359 4 8 8 358 348 5 26 23 16 17 20 21 25 28 26 23 23 20 16 16 15 13 13 11 5 359 351 341 333 327 327
24 23 20 16 17 20 18 14 13 15 14 14 16 19 21 25 25 19 15 15 17 19 20 17 15 12 11 13 17 17 16 16 15 12 6 2 1 0 358 356 355 355 352 347 347 350 350 350 353 354 354 356 360 5 11 17 21 20 20 26 29 25 20 20 25 30 35 40 42 38 34 29 25 23 20 16 14 11 7 4 357 342 332 330 333
22 18 15 14 15 18 21 20 18 18 17 14 15 19 18 19 21 18 15 15 14 14 15 12 10 8 7 6 10 13 13 13 13 11 6 2 1 2 359 357 356 356 354 351 352 353 351 353 360 4 3 4 7 13 21 24 25 29 35 35 30 24 22 21 24 29 37 43 44 39 33 28 22 16 10 8 11 10 8 8 5 358 349 344 341
18 14 9 12 15 16 21 26 23 21 21 19 18 18 15 15 18 18 15 14 12 10 8 7 5 5 3 1 1 5 8 9 9 8 4 1 2 2 0 0 2 360 357 357 357 356 355 360 10 15 15 15 17 21 25 27 29 35 40 40 35 31 28 26 27 33 40 43 37 32 28 24 21 18 14 14 18 15 11 11 7 3 355 342 335
11 12 9 12 17 17 19 24 23 22 22 22 22 22 18 13 13 16 17 16 13 9 6 4 3 2 0 358 357 358 2 5 4 2 360 359 1 1 360 2 5 5 5 3 359 358 3 11 19 23 24 24 26 27 27 28 31 35 39 39 39 37 35 32 33 35 36 34 29 29 30 28 27 27 25 25 24 19 15 12 5 0 355 344 335
9 12 15 18 19 19 18 18 18 19 20 19 19 21 23 20 14 14 17 15 11 10 8 5 4 3 359 357 355 356 359 1 359 357 356 357 358 359 359 1 5 7 7 3 359 3 13 21 25 28 29 29 30 30 30 30 31 32 33 34 35 34 32 32 34 35 31 27 27 32 33 30 29 27 25 24 23 17 13 9 5 0 356 350 344
13 16 22 24 21 19 17 13 13 14 16 18 19 18 18 20 17 17 19 15 10 9 10 8 5 3 359 355 353 355 356 356 355 354 354 355 356 357 358 2 5 7 5 359 359 8 20 25 28 29 29 29 28 27 27 28 27 27 28 27 28 30 31 32 33 32 29 27 29 34 33 30 27 25 23 23 20 15 10 9 8 6 2 1 358
14 17 21 22 20 16 14 11 11 11 11 15 22 24 22 21 20 20 24 27 21 14 13 11 5 0 0 0 0 359 354 350 351 354 355 356 358 359 1 3 6 8 5 2 7 18 24 26 27 25 23 23 22 21 21 20 21 22 23 23 23 24 26 26 24 23 26 30 32 34 33 29 26 24 22 20 17 14 13 13 12 12 11 9 5
10 15 18 19 16 11 9 8 9 8 9 11 14 19 25 32 33 24 22 31 35 22 15 13 7 2 5 7 9 7 358 351 355 2 2 1 2 3 5 9 11 10 9 12 22 28 28 26 24 20 19 19 18 16 16 16 15 15 16 18 20 20 21 22 20 21 28 36 37 34 31 27 25 24 21 16 11 10 13 16 16 14 13 8 0
8 12 15 15 12 8 7 7 6 5 8 11 11 10 11 19 30 30 25 30 34 20 13 16 17 18 16 8 5 9 8 4 6 9 7 5 4 5 10 15 17 15 16 23 31 32 27 24 21 17 17 17 16 14 14 14 13 11 11 13 16 18 18 18 19 23 31 38 38 34 30 26 25 24 20 13 8 7 11 15 15 12 9 5 358
9 11 12 10 9 7 7 8 6 5 7 10 12 10 6 3 6 14 21 29 30 17 14 19 25 29 24 10 4 9 12 10 9 10 9 8 8 11 19 24 21 20 23 30 34 31 26 22 19 16 14 14 13 12 13 13 12 11 11 10 11 15 17 17 20 29 36 38 36 33 30 25 22 19 15 10 6 5 7 10 9 6 3 0 356
9 9 7 4 3 5 5 6 6 7 9 9 9 9 6 1 357 357 3 14 20 20 22 24 27 30 27 17 11 12 14 13 13 13 12 11 12 18 27 31 27 25 27 30 30 26 23 21 17 14 13 12 11 10 11 11 11 11 11 9 9 13 16 17 22 30 33 31 30 28 25 20 15 11 8 6 5 6 7 6 4 2 0 356 352
12 10 4 0 357 359 2 4 4 6 9 10 7 4 3 3 360 356 355 358 2 9 19 25 28 30 27 21 17 16 16 16 18 18 16 15 17 20 26 30 30 28 28 29 26 22 19 17 14 12 10 10 11 9 8 10 11 11 10 10 11 15 16 16 19 23 23 23 22 21 18 14 11 7 4 4 7 8 7 5 1 359 358 352 346
13 11 5 0 356 356 358 1 3 5 7 7 6 4 2 4 4 1 357 354 353 358 7 15 22 25 24 20 18 17 16 17 20 22 22 20 19 19 22 26 25 23 23 24 22 19 17 13 11 10 10 10 11 9 8 9 12 12 10 10 13 16 16 14 14 15 15 15 14 11 9 6 5 4 4 6 9 7 3 0 358 355 352 347 342
6 5 3 1 359 357 357 0 4 6 7 6 6 6 7 8 6 3 2 1 0 360 4 8 12 16 19 20 18 15 15 17 20 23 24 23 21 23 25 24 21 18 17 18 17 16 16 14 11 10 11 12 11 10 10 10 12 14 14 13 15 17 15 13 11 9 7 7 5 2 2 2 3 4 4 5 5 3 358 355 353 350 348 345 340
1 2 2 1 0 360 1 4 7 8 7 8 8 7 8 10 9 8 7 8 7 5 5 7 8 9 11 14 16 12 11 15 20 22 24 25 26 27 27 24 20 17 15 14 13 12 12 12 11 10 11 12 11 10 11 11 13 15 16 16 17 18 15 13 13 10 7 6 4 2 3 4 5 5 4 2 359 357 355 353 350 347 346 345 342
2 5 4 1 2 4 5 7 9 10 10 11 11 10 10 11 12 12 11 10 8 7 6 8 10 8 7 8 10 8 7 12 17 19 21 24 25 26 25 23 20 18 14 12 12 11 10 11 11 11 12 13 11 10 11 12 13 15 15 14 16 17 14 13 14 13 11 9 8 8 8 7 7 6 4 1 357 353 351 351 349 347 345 345 345
4 8 6 3 3 6 7 7 7 8 9 11 13 14 14 13 13 13 11 9 8 8 8 9 10 10 8 7 6 4 6 11 15 15 16 20 22 22 22 21 19 17 13 11 11 11 10 10 11 11 13 13 13 12 13 13 14 15 15 14 14 14 12 10 8 9 10 10 9 10 9 6 6 6 4 1 357 352 350 350 350 347 344 342 341
1 5 6 3 0 0 3 6 6 6 7 9 12 13 14 13 12 12 11 10 9 9 10 11 10 9 10 10 7 5 7 11 14 13 14 15 17 19 20 19 16 14 11 10 10 10 9 10 11 12 13 14 13 13 14 13 13 14 14 14 13 11 8 6 5 6 8 8 7 8 7 5 4 3 3 1 356 352 349 349 349 348 346 343 339
357 358 0 0 357 355 358 4 5 5 6 8 11 13 14 13 12 12 12 12 11 10 11 11 9 9 11 10 8 7 9 12 14 14 14 14 15 16 17 16 14 13 11 10 10 8 8 9 10 11 13 13 12 12 11 11 12 11 10 10 10 6 3 4 5 5 5 6 6 5 5 4 3 1 359 357 354 352 351 351 350 349 348 345 341
350 350 352 355 354 353 358 3 4 4 7 11 14 16 16 15 15 14 13 13 13 11 9 7 6 7 8 7 5 7 11 14 14 14 14 14 14 14 14 14 14 13 12 11 10 8 7 9 12 12 13 13 12 10 9 9 9 7 6 6 5 2 1 2 3 4 3 4 4 3 2 3 2 359 357 355 353 352 352 352 351 349 346 344 344
340 340 344 348 351 355 1 3 4 5 8 12 16 19 19 19 17 15 14 14 14 12 8 4 2 1 2 3 4 7 12 14 13 12 11 12 12 11 12 13 13 14 13 13 12 10 9 10 12 14 14 14 12 10 9 8 5 2 1 2 0 358 358 359 1 1 1 360 359 360 360 360 359 357 356 355 353 352 351 350 347 346 345 344 345
332 335 338 343 350 1 7 6 6 8 11 15 19 21 21 19 16 15 14 13 12 9 5 2 359 358 358 0 4 8 11 11 9 9 9 9 10 11 12 13 13 14 14 13 12 11 11 11 12 14 15 15 15 12 10 9 5 0 358 357 356 355 356 358 358 358 356 355 355 356 356 356 357 355 355 355 353 350 348 347 345 345 344 344 343
330 333 336 342 353 6 9 8 8 10 14 17 18 18 18 16 15 15 14 11 8 5 3 1 0 360 1 3 6 9 8 7 7 8 8 8 9 11 11 12 13 13 13 12 11 12 13 12 11 12 13 14 14 13 10 9 6 1 357 355 354 353 354 354 354 354 353 352 352 352 352 353 354 354 353 353 352 348 346 345 345 343 342 341 340
330 333 338 349 3 10 10 9 10 13 17 17 14 12 14 15 15 14 12 9 7 4 2 3 4 4 6 7 7 6 6 5 6 7 7 7 9 10 10 11 13 14 13 12 11 12 13 12 11 10 10 9 9 8 7 5 4 2 360 358 356 355 354 353 352 352 352 351 351 351 351 350 351 352 351 350 350 348 346 345 345 342 340 339 337
334 342 355 9 14 13 11 11 12 16 17 15 13 13 13 12 11 10 8 7 7 5 5 6 7 6 6 7 6 5 5 4 3 4 6 7 8 9 9 10 12 13 13 13 12 11 11 11 9 7 5 4 3 3 2 1 1 1 1 2 1 358 356 354 352 351 351 351 350 350 349 348 349 350 350 349 349 348 346 345 344 342 340 338 337
351 7 19 22 19 15 13 13 15 17 15 13 13 13 11 8 8 8 7 6 6 6 5 5 5 5 5 5 4 3 2 1 2 4 6 7 7 8 9 9 10 10 11 11 11 9 8 7 5 2 0 358 358 358 358 359 360 359 359 0 0 358 354 352 351 350 349 350 350 349 348 347 348 348 348 348 348 346 345 343 342 341 340 339 338
19 27 27 23 20 17 14 15 17 16 13 12 11 9 7 7 7 6 6 5 5 5 3 2 2 2 1 1 1 0 0 1 3 4 5 5 5 6 7 8 8 8 8 8 8 6 4 2 360 357 356 355 355 355 355 355 355 354 354 355 355 353 350 350 350 350 349 348 349 349 348 347 347 348 348 348 347 345 344 343 341 340 340 339 338
36 34 29 23 18 17 16 18 18 16 13 12 8 3 2 2 1 1 2 1 0 0 360 358 358 359 358 358 358 358 359 1 2 1 2 3 3 4 5 6 6 6 6 6 5 3 1 359 357 354 354 354 353 352 352 352 351 350 351 351 350 348 347 348 350 350 348 346 347 347 347 347 347 348 348 348 347 345 344 343 341 340 339 337 336
35 30 24 18 17 18 19 18 17 14 9 4 360 357 355 355 355 357 358 358 357 357 356 354 355 356 357 356 357 357 358 358 359 359 360 1 1 1 3 3 3 3 3 3 3 2 360 357 356 353 352 352 351 351 350 350 349 349 349 347 345 344 346 348 348 347 345 345 345 346 346 346 347 347 347 347 346 344 343 343 342 340 338 337 337
Height
791 791 791 791 791 790 790 789 789 788 788 788 788 787 787 786 785 785 784 783 782 781 780 780 779 778 777 776 775 774 773 772 771 771 769 768 767 765 764 764 763 762 761 759 759 757 756 756 754 754 754 752 751 751 750 749 749 748 748 747 746 746 745 744 739 729 725 730 732 730 731 730 729 730 730 729 728 728 727 726 726 725 724 723 722
790 790 790 790 790 790 789 789 788 788 788 787 787 786 785 785 784 783 783 782 781 780 779 778 777 776 775 774 774 772 771 771 770 769 767 766 765 764 763 762 761 760 759 758 757 756 755 754 753 752 751 750 749 749 748 747 747 746 745 745 744 743 743 742 739 732 725 726 730 729 729 729 728 728 728 727 726 725 724 723 723 723 722 721 720
790 790 790 790 790 790 789 789 788 788 787 787 786 786 785 784 783 783 782 781 780 779 778 777 776 775 774 773 772 771 770 769 768 767 766 765 764 763 762 761 760 759 758 756 755 755 754 752 751 750 749 749 748 747 746 745 745 744 743 743 742 741 741 740 738 734 727 724 727 728 727 727 726 726 726 725 723 723 722 721 720 720 719 718 717
791 790 790 790 790 790 789 789 788 788 787 786 786 785 784 784 783 782 781 780 779 778 777 776 775 774 773 772 771 771 769 769 768 767 766 764 763 762 761 760 759 758 757 756 755 753 752 751 750 749 748 747 746 745 744 743 743 742 741 740 740 738 738 738 736 734 730 724 724 726 726 725 725 724 724 723 721 720 719 718 718 717 716 716 715
792 791 791 791 790 790 789 789 788 788 787 786 786 785 784 783 782 781 780 779 778 777 776 775 774 773 773 772 771 770 769 768 767 766 765 764 763 762 761 760 759 758 756 755 754 752 751 750 748 747 746 745 744 743 742 741 740 740 739 738 738 736 736 736 734 733 730 725 723 724 725 724 723 722 722 721 719 718 717 716 716 715 714 714 713
794 793 792 791 791 790 790 789 788 788 787 786 785 785 783 783 782 781 780 778 777 776 775 774 774 773 772 772 771 770 770 769 767 766 765 764 763 762 760 759 758 757 755 754 753 751 750 748 747 746 744 743 742 741 740 739 738 738 737 736 736 735 734 733 732 731 729 726 723 723 723 723 722 720 720 720 718 716 715 714 714 713 713 712 712
796 794 793 792 791 791 790 789 788 787 787 786 785 784 783 782 781 780 779 778 777 776 775 775 774 773 773 772 771 771 770 769 767 767 765 764 763 761 760 758 757 756 754 753 752 750 749 748 746 744 743 741 740 739 738 737 736 735 735 734 734 733 732 731 730 729 728 725 724 722 722 722 721 719 719 719 717 715 714 713 713 712 711 711 710
797 796 795 793 792 791 790 790 789 787 787 786 785 784 783 782 781 780 779 778 777 777 776 775 774 773 773 772 772 771 770 769 768 766 765 763 762 760 759 758 756 755 754 752 751 750 748 746 745 743 742 740 739 737 736 735 734 733 733 733 732 731 730 729 729 728 727 725 723 722 721 720 720 719 718 717 716 714 714 713 712 712 711 710 709
798 797 796 794 793 793 792 790 789 788 787 786 785 785 784 783 782 781 780 779 778 777 776 776 775 774 773 772 772 771 770 769 768 767 765 764 762 760 759 757 756 755 753 752 750 749 747 746 744 742 741 739 738 736 735 733 732 731 731 731 730 729 728 728 727 726 725 723 722 721 720 719 719 718 717 716 715 714 714 713 712 711 710 708 708
799 798 797 796 795 794 793 792 790 789 788 787 786 785 784 784 782 782 781 780 779 778 777 776 775 775 774 773 772 772 770 769 768 767 766 763 761 760 758 757 756 754 753 751 749 748 747 745 743 742 740 738 737 735 734 732 731 730 730 729 729 728 726 725 725 724 723 722 720 720 719 718 717 717 716 716 715 714 713 712 711 710 709 707 707
800 800 798 797 796 795 794 793 792 791 790 789 788 787 786 785 784 783 782 781 780 779 778 777 776 775 775 774 773 772 771 770 769 768 766 764 761 760 759 757 756 754 753 751 749 748 746 745 743 741 740 738 736 735 733 731 730 729 728 728 727 726 725 724 723 722 721 720 718 718 717 716 716 716 715 714 714 713 712 711 710 709 708 707 706
802 801 800 799 797 796 795 794 793 792 791 790 789 788 787 786 785 784 783 782 781 780 779 778 777 776 775 774 773 772 771 770 769 768 767 764 761 760 759 758 756 755 753 752 750 748 746 744 743 741 739 738 736 734 732 730 729 728 727 726 726 725 724 723 721 720 719 718 716 716 715 714 714 714 714 713 712 711 710 709 709 708 708 707 706
803 802 801 800 798 797 796 795 795 794 793 792 791 790 789 787 786 785 784 783 782 781 780 779 778 777 776 775 774 773 772 771 770 769 767 764 761 760 759 758 757 755 754 752 750 748 746 744 742 740 739 737 735 733 732 730 728 727 725 724 723 723 722 721 720 719 718 716 714 713 713 712 711 711 711 711 710 710 709 708 707 707 707 706 705
804 803 802 801 800 799 798 797 797 796 795 794 792 791 790 788 787 786 785 784 783 782 781 780 779 778 777 776 775 774 773 772 770 769 767 765 762 761 760 759 757 755 754 752 750 748 746 744 742 740 738 737 735 733 732 730 728 726 724 722 721 721 720 719 718 717 716 715 713 712 711 711 710 709 709 709 708 707 707 706 706 705 705 705 704
806 805 804 803 802 801 800 800 799 798 797 795 794 792 791 790 788 787 786 785 784 783 782 781 780 779 778 777 776 775 774 772 771 770 768 765 763 761 761 759 757 755 753 751 750 748 746 744 742 740 738 736 735 733 732 730 728 726 724 722 721 720 718 717 716 714 713 712 711 710 709 708 707 707 706 706 706 705 705 704 704 704 704 703 703
807 807 806 805 804 803 802 801 800 799 797 796 795 793 792 791 789 789 787 786 785 785 784 782 781 780 779 777 776 775 774 773 772 770 769 766 763 762 761 759 757 755 753 751 749 747 746 744 742 740 738 736 734 733 731 729 727 725 723 721 719 718 716 715 713 712 711 710 709 708 707 706 705 705 704 704 704 703 703 703 703 703 703 703 702
809 809 808 807 805 804 803 802 801 800 799 797 796 794 793 792 791 790 789 787 786 785 785 784 782 781 780 778 777 776 775 773 772 771 769 767 764 762 761 759 757 755 753 750 749 747 745 744 742 739 737 735 733 732 730 728 726 724 721 719 717 716 714 713 712 711 710 709 708 707 706 705 704 704 703 703 702 702 702 702 702 702 702 702 701
811 810 809 808 807 805 805 804 802 801 800 799 797 796 795 793 792 791 790 789 788 787 786 785 783 782 781 779 778 776 775 774 773 771 770 768 765 763 761 759 757 755 752 750 748 746 744 743 741 739 737 735 733 731 729 727 725 722 720 718 716 714 713 712 711 710 709 708 707 706 705 704 704 703 703 702 702 702 702 702 701 701 702 702 701
812 811 810 809 808 807 806 805 803 802 801 800 799 797 796 795 794 793 791 790 789 788 786 785 784 783 782 780 779 777 775 774 773 772 770 768 766 764 761 759 757 755 753 750 748 746 744 741 740 739 736 734 732 730 728 726 724 721 720 718 716 714 713 711 710 709 709 708 707 706 705 704 704 703 703 702 702 701 701 702 701 701 701 701 701
813 812 811 810 809 808 807 806 804 803 802 801 799 798 797 796 794 793 792 791 789 788 787 786 785 784 783 781 779 777 776 774 773 772 771 768 766 764 761 759 757 755 753 751 748 746 743 741 739 737 735 733 731 729 727 725 723 721 719 717 716 715 713 711 710 709 708 707 707 706 705 705 704 704 703 702 702 702 701 701 701 701 701 701 700
814 813 812 811 810 809 808 807 805 804 803 801 800 799 798 796 795 794 793 791 790 788 786 786 785 784 783 782 780 778 777 775 773 771 770 768 766 764 762 760 758 756 754 752 749 746 744 742 739 737 735 733 731 729 726 724 722 720 719 717 716 715 713 711 710 709 708 707 706 706 706 705 704 704 703 702 702 701 701 701 700 700 700 700 700
815 814 813 812 811 810 809 807 806 804 803 802 800 799 798 797 796 795 793 792 790 789 787 786 785 784 783 782 780 779 777 775 773 771 770 768 766 765 763 761 759 757 754 752 750 747 745 743 740 738 736 734 732 729 727 724 721 720 718 717 716 715 713 712 710 709 708 707 707 706 706 705 704 704 703 703 702 702 701 701 700 700 700 700 699
816 815 814 812 811 810 809 808 806 805 803 802 800 799 798 797 796 795 794 792 791 789 788 787 786 785 783 782 780 779 777 775 773 772 770 768 766 765 763 761 759 757 755 753 750 748 746 744 741 739 737 734 732 730 727 724 722 720 719 717 716 715 714 712 711 710 709 708 708 707 707 706 706 705 704 703 703 702 701 701 700 700 699 699 699
816 815 815 813 812 811 809 808 806 805 803 802 801 800 798 797 797 795 794 793 792 790 789 788 787 785 783 782 780 779 777 776 774 772 770 769 767 765 763 761 759 758 756 753 751 749 747 744 742 739 737 734 732 730 727 725 724 721 719 718 717 716 714 713 712 711 710 709 709 709 708 708 707 706 705 704 703 702 702 701 700 699 699 699 698
817 816 815 814 812 811 810 808 807 805 804 802 801 800 799 798 797 796 795 794 792 791 790 789 787 786 784 783 781 779 778 776 774 772 771 769 767 765 763 761 759 757 755 753 751 749 747 745 742 740 737 735 732 730 728 726 725 722 720 719 717 716 715 714 713 712 711 711 710 710 709 709 708 707 706 704 704 702 702 701 700 699 699 698 697
818 817 816 814 813 811 810 808 807 806 804 803 802 801 799 798 797 796 795 795 793 792 791 789 788 787 786 784 782 780 778 776 774 772 771 769 767 765 763 761 759 757 755 753 751 749 747 745 742 740 738 736 733 731 729 728 726 723 721 720 719 718 717 716 715 714 713 712 712 711 710 709 709 708 706 705 704 703 702 701 700 699 698 697 696
818 817 816 814 813 812 810 809 807 806 805 803 802 801 800 799 798 797 796 795 794 792 791 790 789 788 786 785 783 781 779 776 775 773 771 769 767 765 763 761 759 757 755 753 751 749 747 745 743 741 739 736 734 732 730 728 726 724 723 722 721 720 719 718 717 715 715 714 713 712 711 710 709 708 707 705 704 703 702 701 700 699 698 696 695
819 818 817 815 814 812 811 809 808 807 806 804 803 801 800 799 799 798 797 796 795 794 792 791 790 789 788 786 784 782 779 777 776 774 772 770 768 766 764 761 759 757 755 753 751 749 747 745 743 740 738 736 734 733 731 729 728 727 725 724 723 721 720 718 717 716 716 715 714 713 712 711 710 709 708 706 705 704 703 701 700 699 698 696 695
820 819 817 816 814 813 812 810 809 808 806 805 804 803 802 801 799 799 798 797 796 796 795 793 792 791 789 788 785 783 781 779 777 776 774 772 769 767 765 762 760 759 757 754 752 749 747 745 742 741 739 737 735 734 732 731 730 728 727 726 724 722 721 720 719 718 717 716 715 714 713 712 711 710 708 707 706 705 703 701 700 699 698 696 695
821 819 817 816 815 814 812 811 810 809 807 806 805 804 803 802 801 800 799 798 798 797 796 795 793 792 790 789 787 786 784 781 779 777 774 772 770 767 765 763 761 759 757 755 752 749 747 745 744 742 741 739 738 736 735 733 732 730 729 727 726 724 723 721 720 719 718 717 716 715 714 713 712 711 709 708 707 705 703 702 701 699 698 697 695
821 819 818 817 816 815 814 812 811 810 808 807 805 804 802 801 801 801 800 799 798 798 797 795 794 792 791 789 788 786 784 781 779 777 775 773 770 767 766 764 762 760 758 755 752 750 749 747 746 745 743 742 740 739 738 736 734 733 731 729 728 726 725 723 722 721 719 718 718 716 715 714 713 712 711 709 708 706 704 702 701 700 699 698 696
822 820 819 818 817 816 815 813 812 810 809 807 806 804 803 801 800 800 800 800 799 798 797 795 793 792 791 790 788 785 783 781 779 777 775 773 770 768 766 764 762 761 758 755 753 751 751 749 748 747 745 744 742 741 740 738 737 735 733 731 730 728 727 725 724 722 721 719 719 718 717 716 714 713 712 710 708 706 705 703 702 700 699 698 697
822 821 820 819 818 817 815 814 813 811 810 809 807 806 805 803 801 799 799 799 798 798 797 795 794 792 791 790 788 786 784 781 779 777 775 773 771 769 767 765 763 761 758 755 754 753 752 751 750 749 747 746 744 743 741 740 738 737 735 733 732 730 729 727 725 723 722 721 720 719 718 716 715 714 712 711 709 707 706 704 703 701 700 698 697
823 822 821 820 819 817 816 815 813 812 811 810 809 808 807 805 804 802 799 797 797 796 796 795 794 792 791 789 788 786 784 782 780 778 776 774 772 769 767 765 763 761 759 757 756 755 754 752 751 750 748 747 746 744 742 741 739 738 736 735 733 731 730 728 726 725 723 722 721 720 719 717 716 714 713 711 710 708 707 705 704 702 701 699 697
824 823 822 821 819 818 817 815 814 813 812 811 810 809 808 807 805 804 802 800 798 796 795 794 793 792 791 789 788 786 784 782 780 778 776 774 772 770 767 765 763 761 760 759 758 757 755 754 753 751 750 748 747 745 744 742 740 739 737 735 734 732 730 729 727 726 725 723 722 721 720 718 716 715 713 712 710 709 707 706 705 703 702 700 698
825 824 822 821 820 818 817 816 815 814 813 812 811 810 808 807 806 805 803 802 800 798 796 795 793 792 791 789 788 786 784 783 781 779 777 775 772 770 767 765 764 763 761 760 759 758 757 756 754 753 751 749 748 746 745 743 741 740 738 737 735 733 732 730 729 727 726 724 723 721 720 718 717 715 714 712 711 710 709 707 705 704 702 700 698
825 824 822 821 820 819 818 816 815 814 813 812 811 810 809 808 807 805 804 802 801 799 797 795 793 791 789 788 787 786 785 783 781 779 777 775 773 771 769 768 767 765 763 762 760 759 758 756 755 753 752 750 749 747 745 744 742 741 739 738 736 734 733 732 730 728 727 725 723 722 720 719 717 716 714 713 712 710 709 707 706 704 702 700 698
826 824 823 822 820 819 818 817 816 815 814 812 811 810 809 808 806 805 804 803 801 799 798 796 794 792 790 788 787 786 785 783 781 778 777 775 773 772 771 769 768 766 764 763 761 760 758 757 755 754 752 751 749 748 746 744 743 741 740 738 737 735 734 732 730 729 727 725 724 722 721 719 718 717 715 714 712 710 709 707 706 704 701 700 698
826 825 824 822 821 820 819 818 816 815 814 813 811 810 809 808 807 805 804 803 801 800 798 796 795 794 792 790 788 786 784 782 780 778 777 776 774 773 771 770 768 767 765 764 762 760 759 757 756 754 753 751 749 748 746 745 743 742 741 739 737 736 734 732 731 729 727 726 724 723 721 720 718 717 716 714 713 711 709 707 706 704 702 700 698
826 825 824 823 822 821 819 818 817 816 814 813 812 811 809 808 807 806 805 803 801 800 799 797 796 795 793 791 789 787 785 783 781 780 779 777 775 774 772 771 769 767 766 764 762 761 759 758 756 755 753 751 750 748 747 745 744 742 741 739 738 736 735 733 731 730 728 727 725 723 722 720 719 717 716 714 713 711 710 708 706 704 702 700 698
826 825 824 823 822 821 820 819 817 816 815 814 812 811 810 809 808 806 805 804 802 800 799 798 797 796 794 793 791 789 787 785 783 782 780 778 777 775 773 772 770 768 766 764 763 761 760 758 757 755 753 752 751 749 747 746 744 743 741 740 739 737 736 734 732 730 729 727 726 724 722 721 719 717 716 714 713 711 709 708 706 704 702 700 698
827 825 825 824 822 820 819 819 817 816 815 814 813 812 811 809 808 807 805 804 803 801 800 798 797 796 795 793 791 790 788 786 784 783 781 779 777 776 774 772 770 769 767 765 763 762 760 759 757 756 754 753 751 750 748 746 745 744 742 741 739 738 736 734 733 731 729 727 726 724 723 721 720 718 716 715 713 711 709 707 705 704 702 700 698
827 826 825 824 822 821 820 819 818 817 816 814 813 812 811 810 809 807 806 804 803 801 800 799 797 796 794 793 791 790 788 786 785 783 781 780 778 776 774 772 771 769 768 766 764 763 761 759 758 756 755 753 752 751 749 747 746 745 743 742 740 738 737 735 733 731 729 728 726 725 723 722 720 718 716 715 713 711 709 707 705 704 702 700 697
827 826 825 823 822 821 820 819 818 817 816 815 814 813 811 810 809 807 806 804 803 802 801 799 797 796 794 793 791 789 788 786 785 783 782 780 778 776 774 773 771 770 768 766 764 763 761 759 758 756 755 754 752 751 750 748 747 745 744 742 741 739 737 735 734 732 730 728 726 725 723 722 720 718 716 714 713 711 709 707 705 703 701 699 697
826 825 824 822 821 821 820 820 819 818 816 815 814 812 811 810 809 807 806 805 803 802 801 799 798 796 794 793 791 790 788 787 785 784 782 780 778 777 775 773 771 770 768 766 765 763 761 760 758 756 755 754 753 751 750 749 747 746 744 743 741 739 738 736 735 733 731 729 727 725 724 722 720 718 716 714 713 711 709 707 705 703 701 699 697
826 824 823 822 821 821 820 820 819 818 816 815 814 812 811 810 809 807 806 805 803 802 801 799 798 796 794 793 792 790 789 787 785 784 782 780 779 777 775 773 772 770 768 766 765 763 761 760 758 757 756 754 753 752 750 749 748 746 745 743 742 740 739 737 735 733 732 730 728 726 724 722 720 718 716 714 713 711 709 707 705 703 701 699 697
825 823 823 822 822 821 820 820 818 817 816 815 814 813 811 810 809 808 806 805 804 802 801 799 798 796 795 793 792 790 789 787 786 784 782 781 779 777 775 773 772 770 768 767 765 763 762 760 759 758 756 755 753 752 751 749 748 746 745 744 742 740 739 737 735 733 732 730 728 726 724 722 720 718 716 714 712 710 708 706 705 703 701 699 696
824 823 823 822 822 821 820 819 818 817 816 815 814 813 811 810 809 808 806 805 804 802 801 800 798 796 795 794 792 790 789 787 786 784 783 781 779 777 775 774 772 770 768 767 765 764 762 761 759 758 757 755 754 752 750 749 748 746 745 743 742 740 739 737 735 733 731 730 728 726 724 722 720 718 716 714 712 710 708 706 704 702 700 698 696
824 823 823 822 822 821 820 819 818 817 816 815 814 813 811 810 809 808 806 805 804 803 802 800 798 797 795 793 792 790 789 787 785 784 782 781 779 777 775 774 772 770 769 767 766 764 763 761 760 759 757 755 754 752 751 749 748 746 745 743 741 740 739 737 735 733 731 729 727 726 724 722 720 718 716 714 712 710 708 705 703 701 699 697 695
824 823 823 822 821 821 820 819 818 817 816 815 814 813 811 810 809 808 807 806 804 803 802 800 798 797 795 793 792 790 789 787 786 784 782 781 779 777 775 774 772 770 769 767 766 764 763 761 760 759 757 755 754 752 751 749 748 746 744 743 741 740 738 736 734 733 731 729 727 725 723 721 719 717 715 714 711 709 707 705 703 701 699 696 694
824 823 822 822 821 820 820 819 818 817 816 815 814 813 811 810 809 808 807 806 805 803 802 800 799 797 795 794 792 790 789 787 786 784 782 781 779 777 775 774 772 770 769 768 766 765 763 761 760 758 757 755 754 752 750 749 748 746 744 742 741 739 738 736 734 732 730 728 726 725 723 721 719 716 714 713 711 708 706 704 702 700 698 696 694